Weather History for Kabul, Afghanistan

Change the Weather History Date:

Thursday, April 10, 2014

  Actual Average Record
Temperature  
Mean Temperature 56 °F -  
Max Temperature 68 °F 70 °F - ()
Min Temperature 44 °F 45 °F - ()
Degree Days  
Heating Degree Days 9    
Growing Degree Days 6 (Base 50)    
Moisture  
Dew Point 32 °F    
Average Humidity 39    
Maximum Humidity 71    
Minimum Humidity 20    
Precipitation  
Precipitation 0.00 in 0.07 in - ()
Sea Level Pressure  
Sea Level Pressure 30.17 in    
Wind  
Wind Speed 4 mph ()    
Max Wind Speed 15 mph    
Max Gust Speed 25 mph    
Visibility 5.3 miles    
Events      
T = Trace of Precipitation, MM = Missing Value Source: Averaged Metar Reports

Daily Weather History Graph

Daily Weather History Graph

Search for Another Location

Airport:

Trip Planner

Search our weather history database for the weather conditions in past years. The results will help you decide how hot, cold, wet, or windy it might be!

Date:

Astronomy

Apr. 10, 2014 Rise Set
Actual Time 5:28 AM AFT 6:20 PM AFT
Civil Twilight 5:03 AM AFT 6:46 PM AFT
Nautical Twilight 4:32 AM AFT 7:17 PM AFT
Astronomical Twilight 4:01 AM AFT 7:48 PM AFT
Moon 1:51 PM AFT (4/10) 2:25 AM AFT (4/10)
Length of Visible Light 13h 43m
Length of Day
12h 52m
Waxing Gibbous, 77% of the Moon is Illuminated
Apr 10
Waxing Gibbous
Apr 15
Full
Apr 22
Last Quarter
Apr 29
New
May 7
First Quarter

Hourly Weather History & Observations

Time (AFT) Temp. Windchill Dew Point Humidity Pressure Visibility Wind Dir Wind Speed Gust Speed Precip Events Conditions
12:20 AM 51.8 °F - 33.8 °F 50% 30.21 in 5.0 mi East 3.5 mph - N/A   Scattered Clouds
1:20 AM 50.0 °F - 30.2 °F 47% 30.18 in 5.0 mi North 2.3 mph - N/A   Scattered Clouds
2:20 AM 50.0 °F - 30.2 °F 47% 30.18 in - ESE 2.3 mph - N/A   Clear
3:20 AM 46.4 °F 45.2 °F 35.6 °F 66% 30.18 in - NW 3.5 mph - N/A   Clear
4:20 AM 48.2 °F - 35.6 °F 62% 30.18 in 4.3 mi SSW 3.5 mph - N/A   Unknown
5:20 AM 44.6 °F - 35.6 °F 71% 30.18 in 4.3 mi North 2.3 mph - N/A   Unknown
7:20 AM 48.2 °F - 39.2 °F 71% 30.21 in 5.0 mi SE 4.6 mph - N/A   Unknown
7:47 AM 57.2 °F - 33.8 °F 41% 30.21 in 3.1 mi Calm Calm - N/A   Haze
8:20 AM 57.2 °F - 37.4 °F 48% 30.21 in 3.1 mi NNW 3.5 mph - N/A   Haze
9:04 AM 60.8 °F - 28.4 °F 29% 30.21 in 4.3 mi WNW 5.8 mph - N/A   Unknown
9:20 AM 62.6 °F - 26.6 °F 26% 30.21 in 5.0 mi West 4.6 mph - N/A   Unknown
10:20 AM 64.4 °F - 30.2 °F 28% 30.21 in - West 4.6 mph - N/A   Clear
11:20 AM 68.0 °F - 26.6 °F 21% 30.18 in - West 3.5 mph - N/A   Clear
12:20 PM 66.2 °F - 30.2 °F 26% 30.15 in - East 3.5 mph - N/A   Clear
1:20 PM 68.0 °F - 24.8 °F 20% 30.15 in - Variable 3.5 mph - N/A   Clear
2:20 PM 68.0 °F - 26.6 °F 21% 30.12 in 6.2 mi NE 6.9 mph - N/A   Partly Cloudy
3:20 PM 68.0 °F - 30.2 °F 24% 30.09 in 6.2 mi NE 8.1 mph - N/A   Partly Cloudy
4:20 PM 66.2 °F - 32.0 °F 28% 30.09 in 6.2 mi ENE 6.9 mph - N/A   Partly Cloudy
5:20 PM 66.2 °F - 28.4 °F 24% 30.09 in 6.2 mi NNE 5.8 mph - N/A   Partly Cloudy
6:20 PM 62.6 °F - 28.4 °F 27% 30.09 in 6.2 mi NW 3.5 mph - N/A   Partly Cloudy
7:20 PM 62.6 °F - 32.0 °F 32% 30.12 in 6.2 mi South 2.3 mph - N/A   Partly Cloudy
8:20 PM 60.8 °F - 32.0 °F 34% 30.15 in 6.2 mi NNW 11.5 mph - N/A   Scattered Clouds
9:20 PM 59.0 °F - 33.8 °F 39% 30.18 in 6.2 mi NNW 15.0 mph - N/A   Mostly Cloudy
10:20 PM 59.0 °F - 33.8 °F 39% 30.21 in 6.2 mi North 12.7 mph 25.3 mph N/A   Mostly Cloudy
11:20 PM 57.2 °F - 37.4 °F 48% 30.18 in 6.2 mi SE 5.8 mph - N/A   Mostly Cloudy